Regional Weather Roundup
Issued by NWS

Home | Current Version | Previous Version | Text Only | Print | Product List | Glossary On
Versions: 1 2 3 4 5 6 7 8 9 10 11 12 13 14 15 16 17 18 19 20 21 22 23 24 25 26 27
000
ASUS44 KBMX 231710
RWRAL

ALABAMA REGIONAL WEATHER ROUNDUP
NATIONAL WEATHER SERVICE BIRMINGHAM AL
1200 PM CDT THU OCT 23 2014

NOTE: "FAIR" INDICATES FEW OR NO CLOUDS BELOW 12,000 FEET
WITH NO SIGNIFICANT WEATHER AND/OR OBSTRUCTIONS TO VISIBILITY.

THE REMARK "TC" DENOTES TEMPERATURE IN DEGREES CELSIUS.

ALZ001>011-014-016>018-020-231800-
NORTH ALABAMA

CITY           SKY/WX    TMP DP  RH WIND       PRES   REMARKS
MUSCLE SHOALS  PTSUNNY   61  42  49 CALM      30.19F
HUNTSVILLE     MOSUNNY   62  41  46 CALM      30.17F
DECATUR        MOSUNNY   61  41  47 CALM      30.18F
HALEYVILLE     FAIR      62  44  51 VRB3      30.19F
GADSDEN        SUNNY     61  41  48 NE3       30.15F
$$

ALZ012-013-022-023-030>036-040>044-231800-
WEST CENTRAL ALABAMA

CITY           SKY/WX    TMP DP  RH WIND       PRES   REMARKS
TUSCALOOSA     SUNNY     64  40  41 SE6       30.16F
$$

ALZ015-024>027-033>036-040>044-231800-
CENTRAL ALABAMA

CITY           SKY/WX    TMP DP  RH WIND       PRES   REMARKS
BIRMINGHAM     MOSUNNY   66  41  40 NE7       30.16F
MONTGOMERY     SUNNY     67  45  45 CALM      30.14F
SHELBY CO ARPT SUNNY     64  45  49 CALM      30.14F
MAXWELL AFB    SUNNY     65  47  50 E5        30.13F
GREENVILLE     FAIR      70  44  39 CALM      30.12F
$$

ALZ019-021-028-029-037-038-045>048-231800-
EAST CENTRAL ALABAMA

CITY           SKY/WX    TMP DP  RH WIND       PRES   REMARKS
ANNISTON       SUNNY     63  43  48 E6        30.14F
ALEXANDER CITY SUNNY     66  48  52 N5        30.14F
AUBURN         SUNNY     63  41  45 CALM      30.15F
$$

ALZ051>064-231800-
SOUTHWEST ALABAMA

CITY           SKY/WX    TMP DP  RH WIND       PRES   REMARKS
MOBILE         SUNNY     68  45  43 SE3       30.12F
BROOKLEY FIELD SUNNY     68  48  48 N6        30.13F
EVERGREEN      SUNNY     70  45  40 E7        30.12F
$$

ALZ049-050-065>069-231800-
SOUTHEAST ALABAMA

CITY           SKY/WX    TMP DP  RH WIND       PRES   REMARKS
DOTHAN         SUNNY     68  42  38 VRB3      30.14F
OZARK          SUNNY     69  45  41 VRB5      30.10F
TROY           SUNNY     69  46  43 VRB5      30.13F
EUFAULA        FAIR      69  47  45 CALM      30.10F
$$



USA.gov is the U.S. government's official web portal to all federal, state and local government web resources and services.